Wind_Speed
78 81 75 72 73 72 79 85 85 85 80 78 79 78 76 73 70 67 67 67 66 64 62 62 61 60 58 57 56 56 55 52 49 49 49 47 45 41 39 38 35 32 30 29 26 25 25 26 29 31 33 32 31 32 34 35 32 31 31 27 24 22 20 19 19 20 20 19 18 17 16 16 16 16 16 15 15 15 14 14 13 13 12 13 14 14 15 18
74 80 76 71 73 71 73 81 84 84 81 77 77 78 77 74 71 68 67 67 67 65 63 63 62 61 60 58 57 56 55 54 51 50 50 48 46 43 40 40 37 34 32 30 27 25 25 27 30 32 34 34 33 33 35 36 33 33 33 29 26 24 23 20 20 20 20 19 18 17 17 17 17 16 16 16 15 15 16 15 15 15 14 14 15 14 15 16
72 78 78 72 75 72 68 75 81 83 84 80 76 76 77 75 71 68 67 67 67 66 64 63 62 62 61 60 58 58 56 55 53 51 50 49 47 45 42 40 39 36 33 31 28 26 25 27 30 33 35 36 35 34 35 36 34 33 33 30 27 26 25 22 20 20 20 19 19 18 18 17 17 17 17 17 17 16 17 17 17 16 15 14 15 15 15 15
74 78 79 73 73 74 68 70 76 80 82 81 77 74 75 74 73 69 67 67 67 67 66 64 63 62 62 61 60 59 58 56 54 51 50 50 48 46 44 41 39 37 35 32 30 27 26 27 29 32 35 36 37 36 36 37 36 33 32 31 28 27 27 24 20 19 19 19 19 19 19 19 18 18 18 18 19 19 18 17 16 15 15 15 15 15 15 15
76 79 81 72 68 72 71 69 71 77 78 79 79 75 73 73 73 71 68 67 68 68 66 65 63 63 62 61 61 60 59 58 53 52 52 50 48 47 45 42 41 39 37 34 31 28 27 27 29 32 35 36 38 38 37 37 37 33 32 31 29 29 28 24 21 20 19 19 20 20 21 19 18 19 19 20 22 21 19 18 17 17 16 16 15 15 15 16
77 80 81 72 67 67 70 69 68 74 76 77 79 77 74 71 71 71 69 67 67 68 67 66 64 63 63 62 62 61 60 57 53 53 53 50 49 48 47 44 42 40 38 36 33 31 28 28 28 31 35 37 39 39 38 38 38 33 32 32 31 29 27 24 22 20 20 21 21 22 22 20 19 20 20 22 23 21 19 19 19 19 18 17 17 17 17 17
76 81 80 72 69 65 66 68 65 69 74 76 78 79 77 73 71 71 70 68 67 68 67 67 65 64 64 64 64 63 61 58 54 54 54 51 49 49 47 45 43 41 39 37 35 32 29 28 29 31 35 38 40 40 39 39 38 34 33 33 31 29 28 25 22 21 21 22 23 23 23 22 22 21 21 23 23 20 21 21 21 20 20 19 19 19 18 17
74 81 80 72 71 67 64 67 65 64 70 76 75 76 79 76 73 72 70 68 67 67 68 68 67 66 65 65 64 64 62 59 55 54 54 52 50 49 48 46 44 42 41 38 35 32 31 30 31 31 34 38 40 41 41 41 39 36 33 33 31 29 29 26 23 22 22 23 24 24 24 24 24 22 22 24 22 20 21 21 21 21 21 21 20 20 19 18
73 80 83 75 73 71 65 65 66 63 65 74 73 69 74 77 73 72 71 69 67 66 67 68 68 67 67 66 65 64 61 57 54 54 53 52 51 49 47 46 44 43 42 40 36 34 32 31 32 32 34 36 38 41 42 42 40 36 33 33 31 30 31 28 25 24 23 24 25 25 26 26 25 23 23 23 20 20 21 21 22 22 22 21 21 21 20 19
75 78 83 79 74 73 66 63 65 64 61 69 74 69 71 75 74 72 70 69 68 66 66 68 69 69 68 67 67 64 60 57 55 54 53 51 51 50 48 46 44 43 43 41 39 37 34 33 34 34 33 33 35 38 41 40 39 37 35 34 32 31 32 31 29 26 25 25 26 27 27 27 26 24 23 22 20 22 23 23 23 23 23 22 21 22 21 21
78 77 82 80 75 73 67 61 62 63 60 63 72 72 67 69 72 71 70 69 68 67 66 67 68 69 69 67 67 63 58 57 56 55 54 52 51 50 48 46 44 44 44 43 41 39 38 37 37 36 34 32 31 34 35 35 36 36 36 35 36 34 33 32 31 30 28 27 27 28 28 29 27 23 23 22 21 23 24 24 24 24 24 23 22 22 22 22
81 78 81 81 76 72 67 63 60 60 60 58 65 72 66 64 68 69 70 70 69 68 67 68 68 68 69 68 67 61 57 57 57 56 55 53 52 51 49 48 46 45 44 44 42 41 41 40 39 38 35 32 30 31 32 31 32 33 32 33 37 39 38 36 34 32 32 30 29 29 30 29 25 23 26 25 22 24 24 24 24 25 25 23 23 23 23 22
87 79 80 81 77 72 68 67 65 60 59 56 58 69 68 63 64 65 68 70 69 70 69 68 68 67 69 68 66 61 58 59 58 57 55 54 53 51 50 49 47 46 45 44 44 43 43 42 41 40 37 33 31 31 30 30 30 30 30 29 32 38 41 42 39 35 35 33 31 31 30 28 24 26 30 27 23 24 23 24 24 25 25 24 24 24 24 23
93 82 79 80 77 74 70 69 70 64 60 59 57 63 69 66 65 63 64 67 67 69 70 69 69 68 69 68 66 62 60 60 59 58 56 54 54 52 51 49 48 47 46 45 44 44 45 45 44 42 39 35 32 30 29 29 30 29 29 29 29 33 38 42 41 38 36 35 33 33 30 26 25 30 33 28 25 24 23 24 25 25 26 26 25 25 25 24
98 85 79 77 75 76 74 71 72 69 61 60 58 59 65 66 64 63 63 66 67 67 68 69 69 69 70 69 66 63 62 61 60 58 56 55 54 53 52 50 48 47 46 45 45 46 48 47 45 43 41 37 33 31 30 29 29 28 27 28 28 30 33 38 39 38 37 35 34 34 31 25 26 31 33 29 27 26 25 25 25 26 27 27 27 26 26 26
103 92 81 76 72 76 79 74 73 71 64 62 61 60 64 63 62 64 63 65 68 67 68 68 70 70 70 70 67 65 64 63 62 60 57 56 55 54 53 51 50 48 47 47 47 48 49 47 46 45 43 40 36 33 32 30 29 28 26 25 26 27 30 37 39 37 36 36 35 35 31 25 27 32 33 31 29 28 27 26 26 26 27 28 28 28 27 27
108 100 86 77 72 76 81 77 74 73 67 65 62 60 65 62 59 64 63 64 68 68 67 67 68 70 71 71 69 67 65 63 62 61 58 57 56 54 54 53 52 50 49 49 48 50 50 48 47 46 44 41 37 35 35 33 28 26 24 22 23 23 25 32 38 39 38 38 36 37 34 27 27 33 34 32 31 30 29 28 28 27 27 28 28 28 28 27
106 104 92 81 73 74 80 78 75 73 70 68 63 58 63 63 60 64 66 65 68 69 69 69 68 71 74 73 69 67 64 62 61 60 59 57 56 55 53 53 53 51 50 49 49 50 51 50 48 47 46 43 40 38 36 31 26 24 23 21 21 21 19 22 28 34 38 40 38 38 37 31 28 33 35 34 33 32 31 31 30 28 27 27 28 29 29 29
102 103 97 87 76 74 78 78 77 74 72 71 66 62 65 68 63 64 69 68 69 70 71 74 74 75 76 72 68 65 63 62 62 60 59 58 56 55 54 53 53 53 52 52 51 51 50 49 50 48 47 44 39 36 33 30 28 27 25 23 22 23 22 20 21 25 30 36 40 39 39 34 31 34 37 36 35 34 34 33 32 30 28 28 28 29 30 29
98 100 99 93 82 75 75 77 78 76 74 72 71 70 67 67 65 60 67 69 65 64 64 68 74 76 76 71 66 65 64 65 65 63 62 60 58 57 56 55 55 55 54 54 53 52 50 49 50 48 45 41 36 33 34 34 33 30 28 26 25 25 26 25 24 24 25 30 36 40 41 37 33 34 38 38 36 36 35 35 34 32 30 29 29 29 29 29
95 97 99 96 88 79 74 76 80 78 75 73 75 76 67 63 64 59 63 67 62 60 60 61 64 69 72 70 65 66 68 68 67 66 65 63 61 59 59 58 57 57 55 54 53 52 51 50 49 47 45 41 36 36 37 36 34 33 31 29 28 27 26 26 26 26 26 26 29 35 39 40 36 34 37 40 38 36 36 36 35 34 32 30 29 28 28 29
92 95 98 98 94 86 76 75 81 79 75 74 75 75 66 61 64 60 60 67 64 62 63 62 60 62 65 66 66 67 69 69 68 69 67 65 64 62 61 60 59 58 56 55 55 54 53 51 48 46 45 42 38 38 39 38 36 35 34 33 31 28 25 26 28 27 28 27 26 30 35 38 39 37 37 40 39 37 37 38 37 36 34 32 29 28 29 30
89 92 96 99 98 94 83 75 78 80 77 74 71 69 66 63 65 63 62 67 68 66 65 64 63 62 62 64 67 68 67 67 66 66 66 65 65 63 61 60 59 58 57 55 55 56 56 52 47 43 42 39 36 36 39 39 38 37 36 35 33 30 27 27 28 28 29 28 27 29 32 35 38 39 40 41 40 38 39 39 38 38 36 33 31 30 30 30
86 88 94 98 100 100 90 77 76 80 78 73 70 69 69 70 69 66 66 69 70 69 66 63 61 61 61 61 64 67 67 66 64 63 63 63 63 62 60 59 58 57 57 56 55 55 55 50 44 41 40 37 36 37 39 40 39 38 38 37 35 31 29 28 28 28 29 29 28 29 32 34 34 37 40 42 41 39 40 41 40 38 37 36 34 32 32 31
81 84 90 95 99 101 94 82 75 77 78 75 73 74 76 77 73 67 68 72 69 69 68 64 62 63 61 60 62 65 65 66 65 64 63 62 61 61 59 58 57 56 55 55 54 54 54 51 47 45 41 38 38 38 40 41 40 40 39 38 36 32 30 29 29 29 29 30 30 30 33 34 32 34 37 41 44 41 40 42 41 39 38 38 37 34 33 32
74 79 85 92 98 100 96 88 77 74 80 79 72 72 77 77 73 66 66 71 70 69 71 69 68 68 65 64 65 65 65 65 66 65 65 64 62 60 59 58 57 56 55 54 54 55 54 51 50 48 44 40 40 40 41 42 42 42 39 37 35 33 31 30 30 32 32 31 31 32 35 35 32 31 34 39 45 44 40 41 41 41 40 39 38 36 35 34
68 73 81 88 94 97 96 91 82 75 79 80 71 68 72 72 69 63 61 69 73 71 71 70 70 71 69 67 66 66 67 66 65 65 66 66 65 63 60 59 58 57 57 56 56 57 55 52 50 48 45 43 41 40 40 41 42 40 36 36 36 34 32 33 35 36 35 34 33 34 36 37 33 29 30 35 42 44 42 40 40 41 42 40 39 38 37 36
63 69 78 84 89 94 96 94 88 78 75 77 74 69 69 69 65 58 58 66 71 71 72 71 70 70 71 71 69 69 66 63 65 67 67 66 66 65 63 61 58 56 56 57 57 57 54 51 47 44 42 42 40 37 37 39 41 39 37 38 38 36 35 38 39 39 38 38 38 36 37 40 36 30 29 33 39 44 43 40 40 41 42 42 40 39 39 39
60 65 74 81 87 92 96 96 90 82 76 75 75 71 68 66 60 54 57 63 66 69 71 71 71 71 72 73 73 71 67 65 66 65 65 67 67 66 64 63 60 58 56 55 54 54 52 48 45 43 43 43 41 39 39 40 41 40 39 40 40 39 40 41 43 42 41 42 40 38 38 40 38 31 30 33 36 42 44 41 40 42 43 43 43 41 41 41
58 62 69 79 87 92 96 96 91 88 83 78 74 71 67 64 58 52 54 60 63 66 70 71 73 74 75 75 74 72 70 68 66 63 65 67 66 65 64 63 62 60 58 56 55 53 50 47 47 48 49 48 46 46 45 44 45 44 43 42 43 43 43 44 44 44 44 44 43 40 37 39 39 30 28 32 33 37 43 44 42 42 43 44 45 44 42 43
57 59 65 74 84 93 96 94 93 94 90 83 77 72 67 64 63 59 53 55 60 64 69 73 74 75 76 75 73 72 71 70 67 66 68 67 66 66 66 64 63 61 59 58 57 55 51 50 50 52 52 51 50 49 48 48 48 48 45 44 45 45 45 46 46 47 47 45 43 39 34 37 39 30 23 26 28 31 38 44 44 44 45 45 46 46 45 45
57 59 62 69 79 91 94 91 93 97 93 89 83 77 74 71 72 67 53 51 59 64 69 74 75 75 74 71 70 70 71 71 70 70 69 68 69 69 67 66 65 64 64 62 61 59 56 55 54 54 53 53 52 50 49 50 50 49 48 47 47 48 47 47 48 48 47 43 40 36 33 35 37 33 28 25 25 28 32 39 43 44 45 45 46 48 48 47
56 59 61 64 72 84 90 87 91 96 95 93 89 85 83 79 76 70 56 51 58 61 65 72 74 72 71 70 69 70 70 69 70 71 69 67 68 68 67 66 64 63 63 63 63 62 61 60 58 57 56 56 54 53 51 50 48 47 46 44 44 44 44 45 45 45 44 41 38 36 35 38 37 36 36 31 27 27 29 33 38 41 44 45 45 47 49 48
54 58 61 62 65 76 84 82 85 94 95 92 91 88 82 77 75 71 60 54 55 57 61 69 73 72 71 71 71 71 71 69 67 68 69 68 68 68 67 66 63 61 60 60 61 60 60 60 58 57 56 55 53 51 49 46 44 43 42 42 42 42 43 44 43 43 42 40 38 37 39 40 36 35 37 34 29 27 27 29 33 36 40 43 44 45 48 49
53 56 60 60 62 69 75 75 80 89 92 91 91 86 73 68 73 73 65 58 53 53 57 63 70 73 72 72 71 71 74 72 67 67 69 70 68 66 67 65 64 63 62 62 61 59 58 57 56 55 54 53 52 50 49 48 47 46 46 46 45 44 45 45 44 43 41 40 40 40 41 40 36 35 38 38 33 29 28 29 30 33 36 40 43 44 45 48
53 55 59 58 58 62 64 67 75 81 86 88 88 83 70 63 68 71 67 61 53 51 55 57 65 73 74 73 72 73 76 72 69 67 67 68 68 65 64 64 63 63 63 63 62 61 59 56 55 54 53 53 53 52 51 50 49 48 48 47 45 45 44 44 44 43 42 43 44 44 43 39 36 36 37 39 37 33 30 30 30 32 33 35 38 41 44 47
55 55 57 55 54 56 56 61 70 74 79 80 79 82 77 68 67 67 66 63 53 51 55 55 60 70 75 75 73 74 76 72 70 69 65 65 66 64 63 63 61 59 58 59 58 57 56 55 54 53 52 51 50 50 50 49 48 47 45 43 41 42 43 43 44 44 44 46 46 45 43 39 37 36 35 37 38 35 32 31 31 32 34 35 36 39 43 46
59 58 57 53 52 52 51 58 66 69 74 73 70 78 82 77 72 64 62 65 56 50 57 56 55 64 71 74 72 70 72 74 72 70 67 64 63 62 63 63 60 58 57 56 55 54 53 53 52 51 50 50 49 49 48 48 48 46 44 42 42 44 45 45 45 46 45 45 45 44 42 40 38 36 34 36 38 37 35 34 33 34 35 36 37 38 40 44
62 62 58 52 50 50 51 56 59 63 69 70 69 76 80 81 78 66 58 62 57 49 55 56 52 57 64 69 70 67 69 73 72 70 68 65 62 60 60 62 61 60 59 57 56 54 53 54 53 52 50 50 51 51 51 49 48 46 45 45 46 47 46 45 46 46 45 45 45 46 45 42 39 36 35 36 37 37 37 36 34 34 36 37 37 38 39 41
64 65 60 53 51 51 52 55 56 58 65 71 75 79 80 80 82 72 60 60 59 49 50 54 52 52 56 63 68 68 68 71 70 68 65 62 60 60 61 63 63 60 60 60 57 55 54 54 54 52 52 51 51 50 49 48 45 43 43 43 43 44 44 44 45 45 46 46 47 48 48 45 38 35 36 36 37 37 38 38 36 35 36 36 36 38 39 40
66 68 64 56 53 53 55 57 57 57 63 72 78 80 80 79 80 78 68 61 60 52 46 51 54 49 49 57 65 67 67 67 66 65 63 60 60 60 60 61 62 62 61 62 60 57 56 55 53 53 52 51 49 47 45 45 43 42 42 42 41 41 42 43 45 45 46 46 46 46 49 47 39 35 36 35 36 37 37 39 39 38 38 36 36 39 40 40
69 70 65 59 55 55 57 61 59 57 64 73 78 78 79 78 75 77 73 64 61 56 47 49 54 50 47 52 59 65 65 63 62 62 59 56 55 56 58 59 60 61 61 60 59 59 58 56 54 53 51 49 48 46 46 45 44 44 44 43 44 46 46 47 47 46 45 45 44 45 49 49 40 34 34 33 34 37 36 36 38 39 40 39 36 38 40 41
70 70 67 63 61 59 59 64 63 60 64 70 73 73 76 76 73 74 73 66 63 61 52 49 52 51 48 49 53 60 63 60 58 57 56 54 54 56 59 59 58 60 61 59 59 59 58 57 55 53 50 48 46 45 45 45 46 47 47 47 48 49 47 46 45 45 45 44 43 42 45 47 39 31 30 31 33 37 37 36 36 38 39 40 37 36 39 41
70 71 69 67 67 65 63 66 67 63 63 67 67 68 70 72 72 72 72 69 67 64 56 50 50 50 49 49 50 55 59 59 57 57 57 57 57 57 58 59 59 59 58 57 57 57 57 58 57 55 53 51 49 48 48 48 49 50 50 50 49 47 45 44 42 42 42 40 38 38 40 41 36 30 30 32 34 36 38 36 36 37 38 40 39 38 38 39
72 74 72 68 70 72 68 68 68 64 64 67 66 66 67 70 72 73 72 72 71 65 57 51 48 48 48 47 47 50 54 57 59 60 61 61 60 59 59 59 60 57 56 57 56 56 56 57 55 55 55 52 50 49 48 47 49 49 48 46 44 41 40 38 36 37 36 34 36 39 39 37 33 31 34 36 34 34 36 36 36 37 39 41 42 41 40 39
74 76 75 70 70 73 72 70 71 68 67 67 67 66 66 68 72 73 73 74 74 67 57 51 50 50 50 48 48 50 52 57 62 62 62 62 61 60 59 59 61 60 58 58 56 55 55 55 53 52 50 46 44 42 41 41 42 41 38 37 35 34 33 33 35 36 35 35 39 40 37 34 32 33 36 38 37 36 36 37 38 39 40 42 43 43 43 42
77 79 78 73 70 73 75 73 73 71 69 68 69 68 68 69 72 74 73 73 74 69 59 54 54 54 52 50 49 50 51 55 61 62 61 60 60 61 60 60 62 63 60 58 57 56 55 54 53 51 48 47 45 43 42 41 39 36 32 31 31 31 32 35 39 39 37 40 42 37 34 34 34 35 37 39 41 41 40 40 41 41 42 43 44 46 46 45
79 80 78 73 70 74 78 77 74 71 69 70 70 69 69 71 74 74 71 69 71 71 63 58 57 54 52 50 49 50 53 55 59 62 62 61 61 63 63 62 63 63 61 59 57 56 55 53 51 50 49 49 48 46 46 44 41 37 34 34 34 36 38 41 42 39 39 41 39 33 33 36 35 35 37 38 41 44 43 43 43 42 42 43 44 47 48 48
79 79 77 72 70 73 75 75 73 70 69 71 72 70 69 71 74 75 72 68 70 71 65 59 59 56 52 50 48 50 54 56 58 60 62 62 62 63 63 62 60 60 61 60 57 56 55 53 52 51 50 49 48 47 47 46 43 42 39 39 40 41 42 42 40 38 40 40 36 33 36 35 33 34 36 36 39 44 44 43 42 41 42 43 45 46 47 48
78 78 75 70 69 70 71 71 70 70 70 71 74 73 69 68 70 73 74 71 73 75 67 58 57 57 52 48 46 49 52 52 53 55 57 61 62 60 60 59 57 58 60 60 58 57 56 56 56 55 52 51 50 48 48 48 46 45 43 43 44 45 45 43 40 40 42 40 35 36 38 35 33 35 37 37 40 44 45 44 43 42 41 41 43 44 45 46
75 73 71 69 68 69 70 68 67 69 73 75 78 77 72 70 69 71 74 73 75 79 71 58 53 53 51 48 45 46 49 50 50 50 52 55 57 57 57 58 60 62 61 60 61 61 59 60 60 57 55 54 52 50 49 48 47 46 46 45 47 48 47 45 42 41 42 39 37 40 41 36 32 32 35 38 42 44 45 45 44 42 41 39 41 42 43 44
73 72 71 70 67 69 72 68 64 69 76 78 79 77 74 72 70 70 74 75 77 80 75 63 55 51 49 47 42 39 43 47 49 50 51 53 56 57 57 59 63 65 63 61 61 61 61 61 61 59 56 54 52 50 48 47 48 49 47 46 47 48 46 44 43 43 42 41 41 43 41 35 31 31 34 38 42 43 43 43 42 41 41 41 41 41 40 41
Wind_Direction
200 203 201 204 208 210 212 212 213 214 213 214 214 214 215 214 212 209 208 209 209 210 210 209 208 208 209 210 210 210 211 209 209 209 209 209 206 205 204 202 204 208 212 212 205 200 199 199 198 198 204 208 206 209 216 220 220 220 219 216 213 213 211 205 208 214 212 209 207 203 201 200 202 205 204 202 200 199 194 191 192 191 185 176 167 166 162 154
198 200 199 202 206 207 211 212 213 213 212 213 215 214 214 214 213 211 209 209 210 210 210 210 209 209 209 209 210 210 211 211 210 211 211 212 209 207 205 203 206 208 210 212 209 204 200 197 197 198 203 207 210 214 216 218 221 222 219 215 212 213 214 208 209 217 217 213 210 206 204 205 207 206 207 207 205 203 199 194 194 193 189 185 175 172 172 164
196 198 197 201 205 204 208 211 212 213 212 212 214 215 215 214 214 212 210 209 209 211 211 211 210 210 210 210 210 210 211 211 210 211 212 213 212 210 208 205 206 208 208 210 210 209 204 199 199 201 203 205 209 215 216 218 222 222 220 217 213 214 216 210 209 218 222 218 214 211 208 209 209 208 209 209 208 207 205 199 197 196 191 191 186 178 178 176
193 197 197 200 204 204 206 209 211 212 212 212 213 215 216 215 215 213 211 210 209 210 211 211 211 211 211 211 210 210 211 211 210 211 212 213 213 213 211 208 207 208 208 208 210 212 210 204 201 203 205 205 207 213 217 219 223 221 219 219 216 216 218 212 207 215 223 222 219 216 213 212 210 209 209 210 211 208 207 203 200 199 194 194 195 188 185 185
188 195 197 198 202 204 205 206 209 211 211 212 212 215 216 216 215 214 211 210 209 210 212 212 212 211 212 212 212 211 211 211 210 211 212 212 214 214 214 211 209 209 208 208 209 213 214 209 204 203 206 207 208 213 217 219 222 221 218 220 219 218 218 213 207 212 219 222 222 221 219 217 214 213 211 212 214 209 206 205 203 202 197 195 197 197 194 194
185 191 194 196 197 200 205 206 207 209 210 211 211 213 215 216 215 214 212 210 210 210 211 213 212 212 212 213 213 212 212 211 210 211 212 212 214 215 215 213 211 212 210 209 209 210 213 212 208 204 206 209 210 214 217 219 222 221 219 221 222 221 218 213 208 210 216 220 221 222 223 221 219 217 214 217 218 211 207 207 206 205 201 197 197 200 200 199
184 188 191 193 194 195 200 204 205 207 209 211 211 211 214 216 215 214 212 211 211 210 211 213 213 213 213 213 213 213 213 211 210 211 212 213 214 215 215 214 213 212 212 211 210 211 212 213 212 207 207 210 212 215 217 219 221 221 221 222 224 225 222 216 211 212 215 219 220 222 224 222 221 219 217 221 219 211 210 210 209 208 205 200 199 203 204 203
184 187 190 191 194 193 195 200 201 201 207 210 211 212 214 216 217 216 214 211 211 211 211 212 213 214 213 214 214 213 213 212 211 212 213 213 214 215 215 214 213 213 213 214 212 213 214 215 215 211 208 211 214 216 218 220 221 220 221 223 224 227 227 223 219 217 216 221 221 221 224 224 223 220 221 224 220 214 214 214 214 212 210 206 201 202 206 206
186 185 189 192 193 193 193 197 198 197 203 209 208 209 213 216 217 216 216 214 212 211 211 212 213 215 214 214 214 214 214 214 213 213 214 214 215 216 216 215 214 213 215 215 213 215 217 218 218 215 212 213 215 217 219 222 221 220 220 223 224 227 232 231 226 223 220 223 224 222 224 225 223 221 224 228 223 218 217 217 218 216 215 212 206 203 204 207
189 184 187 191 193 194 192 193 196 195 198 206 207 207 211 215 216 216 217 216 215 213 212 213 213 215 215 214 214 213 214 215 214 214 215 215 216 217 217 217 215 214 215 215 213 215 218 220 220 218 217 217 217 219 222 224 223 222 221 222 224 227 233 235 232 229 225 225 226 225 225 226 224 221 226 230 225 223 220 218 218 218 218 216 211 208 205 207
192 184 186 189 191 192 190 189 193 193 194 201 206 208 211 215 217 217 218 218 216 215 213 213 213 214 215 215 215 214 214 216 215 214 215 215 216 217 218 218 217 215 216 216 215 215 217 220 221 220 220 219 219 221 223 225 224 223 223 225 227 229 232 236 235 232 230 228 228 227 226 227 226 222 227 229 225 226 224 220 220 221 222 219 216 213 209 208
193 185 185 187 189 190 189 189 190 191 193 196 202 207 209 212 215 217 218 218 218 216 215 214 213 214 215 215 215 213 214 216 216 215 215 215 216 217 218 217 218 217 217 217 216 217 218 220 222 223 221 218 218 220 220 222 223 221 223 226 229 231 232 234 235 234 234 231 229 228 227 227 225 224 229 228 225 228 227 225 222 223 225 223 220 217 214 211
196 188 185 185 187 189 190 193 195 193 194 192 196 204 206 208 212 214 217 217 218 218 216 216 215 214 215 215 214 214 213 215 216 216 216 216 216 217 218 218 219 218 218 218 217 218 220 221 222 223 223 220 218 219 220 222 226 224 222 225 229 231 231 232 235 235 236 233 230 230 228 226 222 225 231 228 225 228 229 229 226 224 227 226 223 220 218 215
198 191 186 185 185 187 191 196 199 198 195 191 193 200 203 205 208 212 216 217 217 218 217 216 215 215 215 214 214 214 214 215 216 216 216 217 216 217 218 218 219 220 220 219 218 219 221 222 223 224 224 223 220 221 222 224 228 228 226 225 228 232 230 231 234 235 236 233 231 232 228 222 219 225 231 229 227 229 229 230 229 227 227 227 225 223 221 218
201 194 188 185 183 185 190 193 196 197 193 190 191 197 202 204 206 209 214 217 218 218 218 218 216 215 215 214 213 214 214 214 215 216 217 217 217 217 218 219 220 221 221 221 220 220 221 222 223 225 226 225 223 224 226 227 230 231 230 228 229 233 228 228 232 233 236 236 233 234 229 221 220 227 232 229 227 230 231 231 230 229 227 227 227 225 224 221
204 199 192 186 183 182 187 189 190 192 191 190 189 192 199 202 203 206 211 216 217 217 218 218 218 217 216 215 213 214 214 214 215 215 216 218 218 218 218 220 221 221 222 222 222 222 222 222 223 224 225 226 224 225 228 230 232 232 233 230 229 231 226 226 231 232 236 240 238 237 232 223 223 229 233 231 228 228 231 232 232 231 229 227 227 227 226 224
208 204 197 189 185 182 184 186 187 189 189 189 188 189 196 200 203 205 208 213 215 215 217 218 218 218 217 216 214 214 214 215 216 216 216 218 219 219 219 220 221 222 222 223 224 224 224 223 224 224 226 227 226 227 230 232 234 236 237 235 232 232 228 228 233 233 235 239 240 240 236 226 224 231 233 232 231 229 230 232 232 232 231 230 228 228 228 227
211 208 201 193 188 183 182 183 185 187 187 188 187 186 191 196 202 207 207 210 212 212 213 214 215 217 217 216 214 214 215 216 218 217 217 218 219 220 221 221 223 223 224 225 226 227 226 224 224 225 225 226 226 227 231 233 234 236 236 235 234 236 234 233 237 237 237 238 240 242 239 229 224 231 234 232 232 231 231 232 233 233 233 233 231 230 229 228
214 211 205 197 191 184 181 182 184 186 187 186 184 184 189 189 193 205 209 210 212 211 213 215 215 216 217 216 216 215 215 217 219 219 218 218 219 221 222 222 223 224 225 226 227 228 229 226 225 224 225 226 226 229 232 232 233 234 234 232 232 233 232 231 236 241 240 239 239 240 240 233 224 229 234 232 231 231 232 233 234 234 234 234 233 232 230 229
216 214 209 201 194 187 182 182 183 185 188 184 180 183 188 187 185 198 208 210 214 216 218 221 221 220 218 217 217 217 217 217 218 219 219 218 219 221 223 223 224 224 225 227 228 229 230 229 227 226 227 229 229 231 232 231 232 234 235 233 233 235 233 230 231 236 239 240 239 239 240 236 227 228 234 233 230 231 233 234 235 236 236 235 235 234 233 231
218 216 212 204 197 192 185 182 183 186 189 185 182 185 189 191 189 195 206 207 211 217 217 219 221 222 221 220 218 218 219 219 218 218 218 218 218 219 221 223 224 225 225 227 229 230 230 230 230 230 231 230 227 228 231 231 230 231 233 233 234 236 236 235 234 236 238 241 241 240 240 238 233 231 237 238 232 230 233 235 236 236 237 236 237 238 237 235
218 218 214 207 200 197 191 184 183 187 189 186 187 190 191 195 196 196 203 206 208 213 215 215 217 220 220 220 219 218 219 219 218 218 218 218 218 219 221 222 224 225 226 227 228 229 228 227 230 232 233 230 226 226 229 230 229 230 232 233 235 236 237 239 241 241 242 243 243 243 241 239 236 234 239 243 239 232 232 235 238 238 238 237 238 240 240 238
217 218 216 211 204 202 197 186 183 185 187 185 186 191 193 196 198 198 202 206 209 212 214 214 214 216 216 216 217 218 219 219 220 221 221 220 220 219 221 223 224 226 227 228 229 230 230 230 233 236 236 234 229 228 231 232 232 231 233 235 236 237 238 242 245 247 249 248 246 246 245 241 237 234 237 245 245 238 233 234 237 239 239 239 238 239 241 241
216 217 218 214 208 207 203 191 185 184 183 184 186 190 193 195 197 200 202 203 207 211 212 212 211 213 214 214 217 219 219 220 220 222 223 224 223 222 222 223 225 227 228 229 230 232 232 233 236 237 237 235 230 228 231 233 233 233 234 236 237 237 239 243 247 249 251 252 250 249 248 245 240 236 236 243 248 244 239 236 235 238 240 239 238 239 241 243
216 216 217 216 213 211 206 196 189 184 181 183 187 189 191 194 195 198 202 202 204 208 210 212 212 214 214 213 215 217 218 220 220 220 222 223 224 225 225 225 225 227 228 230 231 233 233 234 235 235 234 233 229 227 229 232 233 232 234 237 238 237 237 242 248 250 251 253 252 250 250 248 245 241 236 240 247 247 244 241 236 236 239 240 239 239 240 243
215 215 216 217 215 214 209 200 193 187 181 182 185 185 187 192 192 194 200 200 201 205 208 211 214 215 216 214 213 214 215 216 218 219 220 221 221 223 225 226 227 228 228 230 232 233 233 234 235 235 234 233 230 227 228 230 232 232 233 236 237 237 237 239 244 249 251 253 254 254 254 251 247 246 241 238 243 247 248 246 241 237 238 241 241 240 239 241
215 214 215 217 217 216 211 203 196 190 183 183 185 185 185 189 190 192 197 199 199 203 207 210 212 214 216 215 215 214 213 215 216 218 220 221 221 220 221 224 226 228 229 230 231 232 233 235 235 236 236 235 234 233 231 231 233 234 234 235 237 238 237 237 240 244 249 252 254 256 258 257 249 246 245 241 241 245 249 250 247 240 238 241 242 241 240 240
215 213 214 216 217 216 212 206 199 192 187 188 190 188 186 188 189 193 199 200 200 201 205 208 210 212 215 214 214 214 215 217 217 217 219 221 222 221 221 221 223 226 229 231 233 233 234 235 236 238 238 238 238 238 236 234 235 235 234 235 237 237 237 239 241 243 246 250 252 254 258 261 255 245 244 245 242 243 246 249 250 245 241 242 243 242 241 241
216 213 214 216 216 216 213 208 201 194 192 194 194 192 190 189 192 197 203 204 202 201 204 206 207 210 213 212 212 212 211 213 215 217 219 220 222 222 222 222 221 222 225 228 231 232 233 234 234 235 236 237 236 237 236 234 236 235 233 234 235 236 237 240 243 244 246 249 251 252 256 263 263 251 243 247 247 243 241 242 245 246 245 244 244 244 243 242
215 215 215 216 216 215 214 210 203 198 199 198 195 194 192 191 193 199 205 206 203 202 204 205 206 209 212 212 213 212 210 209 211 213 216 219 221 220 220 219 218 218 220 222 224 226 228 229 230 232 234 235 234 234 233 233 233 233 231 231 233 235 236 239 244 245 248 251 253 253 254 263 268 260 246 246 249 246 241 239 239 243 247 247 246 245 244 244
214 215 216 217 215 214 215 212 206 204 205 202 197 194 193 194 199 204 206 204 204 204 204 204 206 209 212 213 214 214 212 210 210 211 213 215 219 220 219 218 216 216 217 220 222 224 225 226 228 230 232 234 234 235 235 235 235 234 231 229 231 234 236 239 243 245 248 252 254 255 255 262 268 271 261 251 249 247 244 243 241 242 246 248 247 245 244 245
213 214 216 217 216 215 216 215 210 208 208 206 201 196 197 203 208 209 204 200 204 205 205 205 205 208 212 214 216 216 215 211 210 212 215 216 218 221 221 221 221 221 221 222 223 224 225 226 228 229 230 232 233 235 236 237 238 237 234 230 230 233 236 238 242 247 250 253 257 258 258 262 270 276 273 261 253 250 247 246 246 245 246 247 248 247 244 245
212 213 215 216 216 216 217 216 213 211 210 209 205 202 205 212 215 210 201 199 203 204 205 206 206 208 211 212 214 216 215 212 210 211 214 216 218 220 221 221 221 223 226 228 227 225 225 225 226 227 229 231 232 234 235 237 239 241 241 238 238 241 245 248 251 254 257 259 260 261 261 263 268 271 271 264 256 253 251 249 249 248 247 247 248 248 246 245
211 212 214 216 216 216 217 217 216 214 213 212 210 209 213 218 217 210 203 202 203 202 203 205 205 208 210 212 213 214 213 211 208 209 212 213 214 216 218 219 218 219 223 227 229 229 229 229 230 230 231 232 234 235 236 237 237 239 240 239 240 244 248 251 253 254 256 257 256 255 256 260 264 266 268 266 259 254 254 252 251 250 248 247 248 248 247 246
209 210 212 215 216 216 218 217 216 217 217 215 214 214 217 219 217 212 207 205 202 201 202 203 205 207 209 212 213 214 213 211 208 208 211 214 216 218 220 220 219 219 221 223 226 228 230 232 233 234 235 235 235 236 237 238 237 236 236 236 237 239 242 244 247 249 250 251 252 254 257 261 263 263 264 265 261 257 256 255 254 252 249 248 248 248 248 247
209 209 211 214 215 216 218 217 216 217 219 218 218 217 216 216 215 214 211 207 204 203 202 202 205 207 209 211 212 212 213 212 210 208 209 212 215 218 221 221 219 219 222 224 225 226 227 228 229 229 232 233 234 234 235 236 237 238 239 241 242 242 243 246 248 250 251 252 255 258 260 262 261 261 261 263 263 261 258 257 256 255 253 251 248 247 248 247
209 209 210 212 213 214 217 217 216 217 219 220 221 220 217 215 214 214 212 209 206 206 204 203 207 208 209 211 211 210 210 210 210 208 207 209 212 215 218 219 219 219 222 224 226 227 227 228 227 227 229 231 232 233 233 234 235 238 240 243 245 245 246 248 249 250 251 253 255 256 258 259 258 259 260 261 264 264 262 260 257 256 255 253 251 248 248 249
210 210 210 211 213 215 216 218 217 217 219 221 222 221 220 217 214 213 212 210 209 208 205 206 210 210 211 212 211 210 209 209 210 210 211 212 215 218 219 220 220 219 220 222 224 225 226 226 227 227 227 228 229 231 232 233 235 237 238 237 239 242 244 246 248 250 251 253 255 256 256 256 256 258 259 259 262 265 265 262 260 259 256 254 253 251 251 251
211 211 211 211 215 217 216 218 220 219 221 222 222 221 221 218 214 212 211 209 209 207 205 209 214 214 213 213 213 212 211 212 212 213 215 217 220 222 223 224 223 221 219 219 221 221 222 223 224 224 225 226 227 229 231 233 233 234 234 233 235 238 240 242 244 247 249 251 254 255 255 256 257 259 259 259 260 262 264 263 260 258 257 256 254 253 252 251
214 213 211 211 218 219 217 219 221 222 224 223 222 222 221 220 215 212 211 208 207 206 203 208 216 219 216 214 214 214 213 214 215 216 218 220 222 223 223 223 223 223 221 219 218 219 219 222 222 222 223 225 227 229 232 233 232 232 233 235 237 239 241 243 244 246 249 251 253 255 256 257 258 257 257 258 259 260 261 263 262 259 258 258 255 253 253 252
215 215 212 211 219 223 221 223 224 224 225 223 222 222 222 221 217 214 213 209 207 207 204 207 213 218 219 217 215 215 215 215 216 217 219 221 222 222 223 223 223 222 221 219 217 217 217 219 221 222 223 225 228 228 228 228 229 230 232 234 237 240 241 242 244 245 248 250 252 254 256 256 254 254 256 257 259 260 262 264 267 267 265 262 257 253 252 252
216 217 214 212 219 225 226 227 228 227 226 223 222 223 222 221 218 215 214 211 209 207 204 207 211 214 219 220 217 216 215 216 217 218 219 220 221 222 221 222 222 221 221 221 219 217 215 215 218 220 220 222 223 223 224 227 228 229 231 233 234 236 237 238 240 242 244 246 249 252 255 255 254 256 259 260 260 261 263 266 269 271 271 270 264 256 253 252
216 218 219 216 220 225 229 231 230 228 226 224 224 225 224 221 218 214 212 212 211 209 205 205 209 212 216 219 218 217 216 215 216 217 216 215 216 218 218 219 220 219 218 219 218 217 215 214 216 218 219 220 221 222 223 226 228 230 233 234 235 236 238 239 241 242 244 246 249 253 255 256 258 260 262 263 263 262 262 264 265 267 269 271 269 262 256 253
217 219 222 221 222 226 229 232 233 230 225 224 225 226 224 221 218 214 210 210 211 210 208 206 207 211 217 218 217 217 216 215 214 213 215 216 215 215 216 217 219 220 219 219 219 218 217 216 216 217 218 218 218 219 223 227 231 234 235 235 236 237 239 241 243 245 247 250 253 255 257 259 261 262 258 257 259 260 261 262 263 264 266 268 268 266 261 257
220 222 225 224 225 228 229 232 235 232 226 226 228 227 224 220 217 214 210 210 212 212 209 207 207 212 217 218 216 216 216 216 215 214 215 218 217 215 214 215 217 218 219 220 220 219 220 221 220 220 222 223 225 230 235 239 241 241 240 240 240 241 244 247 249 250 252 253 254 256 258 258 259 259 256 255 257 259 261 262 262 263 265 266 266 266 265 261
224 226 227 226 228 232 231 231 235 234 228 228 229 228 225 220 217 214 211 210 211 211 210 209 210 212 215 216 215 215 213 213 215 216 216 216 216 215 214 215 216 217 218 218 220 220 221 224 226 227 229 233 237 242 245 246 246 247 249 249 247 247 249 249 247 248 250 250 251 254 257 255 254 255 256 258 261 261 261 262 262 261 261 263 264 265 264 260
226 227 228 227 228 233 232 230 233 233 229 228 229 227 224 220 216 214 211 210 210 211 211 210 209 210 213 215 216 215 213 211 212 214 216 215 214 214 214 215 216 217 217 217 219 221 222 224 225 227 229 231 232 234 235 238 241 243 244 244 244 245 245 242 241 243 245 246 250 254 255 254 254 255 256 259 263 264 263 263 263 262 261 263 264 264 263 260
227 228 230 230 230 233 232 229 231 232 229 228 228 227 225 220 216 212 208 207 208 209 209 206 203 206 210 213 216 216 215 212 209 210 213 213 212 214 215 215 215 216 218 218 218 221 224 225 226 228 229 229 229 230 230 232 234 234 233 235 238 239 237 236 239 243 245 248 252 253 252 253 254 255 258 261 265 268 268 267 267 265 264 264 263 262 262 262
228 230 231 231 231 233 231 227 229 231 228 226 225 224 222 219 216 211 206 204 205 205 206 202 200 203 206 209 213 216 217 214 209 208 210 210 211 213 215 215 215 214 216 218 218 219 222 223 225 228 230 231 232 231 230 231 229 228 229 231 233 235 235 237 240 243 245 247 248 247 249 252 254 256 260 264 268 271 271 270 270 267 264 261 261 262 265 267
230 232 232 231 233 234 229 224 226 228 226 224 223 222 218 214 213 209 204 204 206 205 202 200 200 204 207 210 213 216 217 216 213 212 211 210 211 212 214 215 215 214 215 216 216 217 219 219 220 223 226 228 229 229 229 229 227 226 227 229 231 234 237 238 239 240 244 246 248 252 254 254 257 261 262 263 265 267 269 270 270 267 264 262 263 266 269 270
231 231 232 233 233 231 226 221 222 225 225 222 221 220 215 210 209 207 203 205 211 211 206 200 200 204 210 216 216 214 214 214 214 215 216 215 214 213 214 215 214 214 216 216 215 215 218 219 219 220 222 223 224 226 227 227 226 227 228 229 233 237 240 242 243 247 251 254 255 258 259 260 262 263 261 260 261 263 266 268 268 267 266 265 266 269 271 271
230 229 230 233 232 227 223 220 218 222 224 221 220 219 215 210 206 204 202 205 211 213 210 207 206 208 214 218 215 212 211 211 212 214 217 219 219 218 219 219 216 215 216 218 219 218 219 220 220 221 223 223 223 225 227 227 228 229 230 234 239 243 246 250 252 254 258 259 259 260 261 262 259 256 256 257 259 260 263 265 266 268 269 270 272 272 272 272
Height
5633 5641 5650 5654 5659 5666 5673 5679 5686 5693 5702 5708 5713 5719 5724 5730 5737 5743 5748 5753 5758 5762 5766 5771 5774 5778 5783 5787 5791 5795 5799 5802 5806 5809 5811 5814 5817 5820 5822 5826 5828 5830 5832 5833 5835 5836 5839 5841 5843 5845 5847 5849 5851 5853 5855 5857 5859 5861 5863 5867 5870 5872 5873 5875 5876 5877 5878 5880 5881 5883 5884 5885 5886 5888 5889 5891 5891 5892 5893 5894 5895 5897 5898 5898 5898 5900 5900 5899
5628 5636 5644 5649 5654 5662 5668 5674 5681 5689 5698 5705 5708 5713 5719 5726 5733 5739 5744 5749 5754 5758 5763 5767 5771 5774 5779 5782 5787 5791 5795 5798 5802 5806 5809 5812 5814 5817 5820 5823 5825 5828 5830 5832 5833 5834 5837 5839 5841 5843 5845 5847 5849 5851 5853 5854 5857 5859 5862 5865 5868 5869 5871 5873 5875 5876 5877 5879 5881 5882 5883 5884 5885 5887 5889 5890 5891 5892 5892 5893 5895 5896 5897 5898 5898 5899 5901 5900
5624 5631 5639 5644 5648 5656 5662 5668 5675 5683 5692 5699 5704 5709 5715 5722 5728 5734 5740 5746 5750 5754 5759 5763 5767 5771 5775 5779 5783 5787 5791 5794 5798 5803 5806 5809 5812 5815 5818 5820 5823 5825 5828 5830 5832 5833 5835 5837 5839 5841 5842 5844 5847 5849 5850 5852 5854 5857 5860 5863 5865 5867 5868 5871 5874 5875 5877 5879 5881 5882 5883 5884 5885 5886 5888 5889 5890 5891 5892 5892 5894 5895 5897 5898 5898 5899 5900 5901
5619 5626 5635 5640 5644 5650 5655 5662 5671 5678 5686 5695 5701 5706 5712 5718 5724 5730 5736 5741 5746 5751 5755 5759 5763 5767 5771 5775 5779 5783 5787 5791 5796 5800 5803 5806 5810 5813 5815 5818 5821 5823 5826 5828 5830 5832 5834 5835 5837 5838 5840 5842 5845 5846 5848 5850 5852 5855 5859 5862 5864 5865 5866 5869 5872 5874 5877 5879 5880 5882 5883 5883 5884 5885 5887 5888 5889 5889 5890 5892 5893 5895 5897 5897 5898 5899 5900 5901
5613 5621 5629 5635 5641 5646 5650 5657 5666 5673 5682 5690 5697 5703 5707 5713 5719 5725 5731 5736 5742 5747 5751 5755 5759 5763 5767 5771 5775 5779 5783 5788 5794 5797 5800 5804 5807 5810 5813 5816 5818 5821 5823 5826 5828 5830 5833 5834 5834 5836 5839 5841 5843 5844 5847 5849 5851 5855 5859 5860 5862 5863 5865 5868 5871 5873 5875 5877 5879 5881 5882 5883 5884 5885 5886 5887 5887 5888 5890 5891 5893 5894 5896 5897 5898 5899 5899 5900
5607 5616 5624 5631 5638 5643 5647 5652 5659 5669 5679 5685 5692 5698 5702 5708 5714 5720 5727 5732 5737 5742 5747 5751 5755 5759 5763 5767 5771 5775 5780 5786 5792 5794 5797 5801 5804 5807 5810 5813 5816 5819 5821 5823 5825 5828 5831 5833 5833 5835 5837 5839 5840 5842 5845 5848 5850 5854 5857 5859 5860 5862 5863 5866 5869 5871 5874 5875 5877 5879 5881 5883 5884 5884 5885 5885 5886 5889 5890 5891 5892 5893 5895 5896 5897 5897 5898 5899
5602 5611 5620 5627 5633 5639 5642 5646 5653 5664 5674 5680 5686 5693 5698 5704 5710 5715 5722 5728 5733 5739 5743 5747 5751 5755 5759 5763 5767 5772 5776 5782 5788 5790 5793 5798 5801 5805 5808 5811 5814 5816 5819 5821 5823 5826 5829 5831 5832 5833 5835 5837 5838 5840 5843 5846 5848 5852 5855 5857 5859 5861 5861 5864 5867 5869 5872 5874 5875 5877 5879 5881 5882 5883 5884 5884 5885 5889 5889 5890 5891 5892 5893 5895 5896 5896 5897 5898
5598 5607 5615 5622 5628 5633 5637 5642 5649 5658 5667 5675 5681 5690 5696 5700 5706 5711 5717 5724 5729 5734 5739 5743 5747 5751 5755 5760 5764 5769 5773 5779 5784 5787 5790 5794 5798 5801 5805 5808 5812 5814 5817 5819 5822 5824 5826 5829 5831 5832 5833 5835 5836 5838 5841 5843 5846 5850 5852 5855 5857 5859 5860 5862 5865 5868 5870 5872 5874 5875 5877 5879 5880 5882 5883 5883 5886 5888 5889 5890 5890 5891 5892 5893 5895 5896 5896 5898
5592 5601 5609 5617 5623 5628 5634 5639 5645 5653 5662 5669 5678 5687 5692 5696 5702 5707 5713 5720 5725 5730 5735 5738 5743 5747 5751 5756 5760 5766 5772 5777 5782 5785 5788 5792 5795 5799 5802 5806 5810 5812 5814 5817 5820 5821 5824 5827 5829 5831 5831 5833 5834 5836 5838 5840 5845 5849 5851 5853 5856 5858 5859 5860 5863 5866 5868 5870 5872 5874 5875 5877 5879 5881 5882 5883 5886 5888 5888 5889 5889 5890 5891 5892 5894 5895 5896 5897
5587 5596 5605 5612 5619 5624 5631 5636 5641 5649 5656 5663 5673 5682 5686 5691 5698 5703 5709 5715 5721 5726 5730 5734 5738 5743 5747 5752 5756 5763 5769 5773 5778 5782 5785 5789 5793 5796 5799 5803 5807 5810 5812 5815 5817 5819 5822 5824 5826 5828 5829 5831 5832 5834 5836 5839 5843 5847 5849 5851 5854 5856 5857 5859 5861 5864 5867 5868 5871 5872 5873 5875 5877 5880 5881 5883 5886 5886 5887 5888 5888 5889 5890 5891 5893 5894 5895 5896
5581 5592 5600 5607 5614 5620 5627 5632 5638 5644 5651 5658 5668 5676 5682 5688 5694 5700 5705 5711 5716 5722 5726 5730 5735 5739 5744 5749 5754 5762 5767 5769 5773 5777 5781 5786 5789 5793 5797 5800 5804 5807 5809 5812 5814 5816 5819 5821 5822 5825 5827 5829 5832 5834 5836 5838 5842 5845 5847 5849 5851 5853 5855 5857 5859 5862 5864 5866 5868 5870 5871 5873 5875 5879 5880 5882 5884 5884 5885 5887 5888 5888 5889 5890 5892 5893 5894 5895
5575 5585 5595 5602 5609 5616 5623 5628 5635 5642 5648 5656 5666 5673 5680 5685 5690 5695 5701 5706 5712 5716 5721 5725 5730 5736 5740 5745 5751 5759 5763 5765 5769 5773 5777 5782 5785 5789 5793 5796 5800 5803 5806 5809 5811 5814 5816 5818 5820 5822 5825 5828 5830 5832 5834 5837 5839 5842 5845 5847 5849 5850 5852 5855 5856 5859 5862 5864 5866 5868 5869 5871 5876 5879 5877 5879 5882 5883 5884 5886 5887 5888 5888 5889 5890 5892 5892 5894
5570 5579 5589 5597 5604 5612 5618 5625 5632 5639 5645 5653 5662 5668 5675 5681 5685 5690 5695 5701 5706 5711 5716 5721 5727 5731 5735 5741 5748 5754 5758 5760 5764 5769 5774 5778 5782 5786 5789 5793 5796 5799 5802 5805 5808 5811 5812 5814 5816 5819 5822 5826 5828 5830 5833 5835 5836 5839 5842 5844 5846 5847 5850 5852 5854 5856 5859 5861 5864 5865 5867 5871 5876 5875 5873 5877 5881 5882 5884 5885 5886 5887 5887 5888 5889 5890 5891 5892
5564 5574 5583 5590 5599 5607 5614 5622 5629 5637 5643 5649 5656 5662 5669 5676 5681 5686 5691 5696 5701 5705 5710 5715 5721 5726 5730 5737 5743 5748 5753 5756 5760 5766 5770 5775 5779 5783 5786 5790 5792 5795 5799 5802 5805 5807 5809 5811 5813 5816 5819 5823 5827 5829 5831 5833 5834 5836 5839 5841 5843 5844 5847 5849 5851 5854 5856 5859 5861 5862 5865 5871 5874 5871 5870 5875 5879 5880 5882 5883 5884 5886 5886 5887 5887 5888 5889 5891
5560 5569 5578 5586 5594 5602 5611 5619 5626 5634 5640 5645 5651 5657 5665 5673 5678 5682 5686 5690 5695 5700 5705 5711 5715 5720 5725 5731 5737 5743 5747 5752 5757 5762 5767 5771 5775 5780 5783 5786 5789 5792 5795 5799 5802 5803 5804 5807 5811 5813 5817 5821 5825 5827 5829 5831 5833 5835 5837 5839 5840 5842 5845 5847 5849 5852 5853 5856 5859 5860 5863 5869 5871 5869 5869 5873 5877 5879 5880 5881 5882 5884 5885 5886 5886 5887 5888 5889
5554 5562 5573 5583 5591 5598 5607 5615 5622 5630 5637 5641 5647 5653 5662 5669 5673 5678 5681 5685 5689 5694 5699 5703 5708 5715 5720 5726 5732 5738 5743 5749 5753 5758 5763 5767 5771 5775 5779 5782 5785 5789 5792 5794 5797 5800 5802 5805 5807 5810 5814 5818 5822 5825 5827 5829 5830 5833 5835 5836 5838 5840 5843 5845 5846 5849 5851 5853 5856 5858 5862 5867 5869 5867 5868 5871 5874 5876 5878 5879 5880 5881 5882 5884 5884 5885 5886 5887
5547 5557 5568 5578 5586 5594 5603 5610 5617 5625 5632 5637 5643 5650 5657 5664 5669 5674 5677 5679 5681 5687 5694 5699 5705 5711 5713 5719 5728 5734 5741 5746 5750 5755 5760 5764 5767 5772 5775 5779 5782 5785 5788 5790 5793 5796 5799 5802 5804 5807 5810 5815 5820 5822 5823 5826 5829 5832 5834 5836 5837 5839 5841 5842 5843 5846 5849 5850 5853 5855 5859 5864 5866 5865 5866 5869 5871 5873 5875 5876 5877 5878 5880 5882 5883 5884 5884 5886
5542 5553 5564 5573 5582 5590 5598 5605 5613 5621 5627 5633 5640 5647 5654 5660 5665 5668 5670 5670 5673 5680 5685 5688 5694 5697 5701 5715 5727 5734 5740 5744 5747 5752 5756 5760 5764 5768 5772 5776 5779 5782 5785 5787 5790 5792 5795 5798 5801 5803 5807 5811 5816 5819 5822 5826 5829 5831 5833 5834 5836 5837 5839 5840 5841 5844 5846 5848 5850 5852 5856 5861 5863 5862 5863 5866 5868 5870 5872 5873 5874 5876 5878 5880 5881 5882 5883 5884
5537 5547 5559 5569 5577 5585 5593 5601 5608 5616 5622 5628 5636 5646 5652 5654 5658 5662 5663 5661 5664 5668 5671 5677 5685 5692 5706 5721 5727 5731 5736 5739 5742 5747 5752 5756 5761 5764 5768 5771 5774 5778 5781 5784 5786 5789 5791 5794 5797 5799 5803 5808 5814 5819 5822 5825 5826 5827 5829 5831 5833 5834 5835 5837 5839 5840 5842 5844 5847 5849 5852 5857 5859 5858 5859 5862 5865 5867 5869 5870 5872 5874 5876 5877 5878 5879 5880 5882
5533 5541 5552 5563 5572 5580 5587 5595 5604 5611 5617 5624 5632 5640 5644 5644 5649 5654 5654 5656 5662 5669 5676 5685 5691 5698 5710 5717 5721 5726 5729 5732 5737 5741 5746 5751 5756 5759 5763 5766 5770 5773 5777 5781 5783 5786 5789 5791 5794 5797 5802 5808 5814 5818 5820 5821 5823 5824 5826 5828 5830 5831 5832 5833 5835 5837 5839 5841 5843 5845 5848 5852 5856 5856 5855 5857 5861 5864 5866 5868 5870 5872 5874 5875 5876 5877 5878 5880
5529 5535 5546 5557 5566 5573 5581 5590 5598 5605 5613 5620 5625 5630 5635 5640 5643 5645 5649 5657 5664 5670 5676 5682 5688 5695 5704 5711 5717 5721 5721 5725 5730 5733 5738 5744 5749 5753 5756 5761 5765 5769 5774 5777 5780 5783 5786 5788 5792 5796 5801 5806 5810 5813 5814 5817 5819 5821 5822 5825 5827 5828 5830 5831 5833 5834 5836 5838 5840 5842 5844 5848 5853 5855 5853 5853 5857 5861 5863 5865 5867 5869 5871 5872 5874 5875 5877 5877
5524 5530 5541 5551 5559 5566 5575 5585 5592 5600 5607 5613 5618 5626 5634 5640 5641 5642 5648 5656 5661 5664 5668 5675 5682 5690 5699 5706 5710 5711 5712 5718 5722 5725 5732 5738 5743 5748 5752 5757 5760 5765 5770 5773 5776 5779 5782 5786 5790 5794 5797 5802 5806 5808 5810 5813 5816 5817 5819 5821 5823 5826 5829 5830 5831 5832 5833 5836 5838 5839 5841 5844 5848 5852 5852 5850 5854 5858 5860 5861 5863 5866 5868 5870 5873 5874 5874 5875
5518 5525 5534 5544 5552 5559 5569 5579 5586 5593 5600 5608 5617 5626 5633 5639 5640 5641 5646 5651 5655 5658 5663 5668 5675 5683 5689 5695 5699 5704 5708 5714 5719 5725 5731 5735 5739 5744 5749 5753 5757 5761 5765 5769 5773 5776 5780 5785 5790 5793 5796 5800 5804 5806 5807 5810 5812 5814 5816 5818 5820 5824 5827 5827 5828 5830 5831 5833 5836 5837 5838 5841 5844 5848 5849 5848 5850 5854 5856 5857 5860 5862 5865 5868 5870 5871 5872 5872
5513 5520 5527 5537 5545 5552 5563 5573 5579 5587 5597 5607 5616 5623 5630 5634 5636 5638 5639 5642 5647 5653 5658 5664 5671 5677 5683 5690 5696 5699 5703 5710 5717 5723 5729 5733 5737 5743 5747 5751 5755 5759 5763 5767 5770 5774 5778 5783 5787 5791 5794 5798 5801 5803 5804 5806 5809 5811 5813 5815 5818 5821 5824 5825 5826 5827 5828 5830 5832 5834 5835 5838 5841 5844 5847 5846 5846 5850 5852 5854 5856 5859 5862 5865 5866 5868 5869 5870
5510 5516 5522 5531 5538 5547 5558 5568 5576 5585 5595 5605 5612 5619 5625 5627 5630 5633 5634 5636 5641 5647 5652 5658 5664 5669 5676 5684 5688 5691 5699 5706 5711 5717 5723 5728 5734 5740 5745 5748 5752 5756 5760 5764 5767 5770 5774 5778 5782 5786 5790 5794 5796 5799 5800 5802 5805 5807 5810 5812 5815 5818 5821 5823 5823 5825 5826 5826 5828 5830 5831 5835 5838 5841 5844 5844 5842 5846 5849 5850 5853 5855 5858 5860 5862 5865 5866 5867
5506 5513 5520 5526 5533 5542 5554 5565 5574 5582 5590 5600 5609 5615 5619 5621 5625 5628 5629 5631 5634 5637 5643 5649 5656 5662 5669 5675 5678 5684 5692 5697 5704 5711 5715 5721 5728 5735 5740 5744 5750 5754 5757 5760 5763 5766 5770 5775 5778 5782 5786 5790 5792 5794 5796 5798 5800 5803 5807 5810 5812 5815 5818 5820 5821 5821 5822 5823 5825 5827 5827 5831 5836 5838 5840 5840 5839 5842 5845 5847 5849 5852 5853 5856 5859 5862 5863 5864
5503 5510 5516 5522 5529 5537 5549 5561 5570 5578 5587 5596 5604 5609 5612 5616 5621 5623 5625 5624 5624 5630 5638 5643 5649 5657 5665 5670 5674 5678 5682 5690 5700 5705 5709 5715 5721 5727 5733 5739 5746 5750 5753 5755 5758 5763 5768 5771 5774 5778 5783 5787 5790 5793 5795 5796 5798 5802 5806 5808 5809 5812 5814 5815 5816 5817 5819 5821 5822 5823 5823 5825 5831 5836 5835 5836 5837 5838 5841 5844 5846 5848 5850 5852 5855 5858 5860 5861
5500 5506 5512 5518 5525 5532 5543 5556 5565 5575 5584 5589 5596 5601 5605 5611 5615 5616 5616 5615 5617 5625 5632 5637 5645 5653 5659 5664 5667 5671 5680 5692 5695 5696 5703 5710 5715 5722 5728 5735 5741 5746 5749 5752 5756 5761 5765 5769 5773 5777 5780 5784 5789 5791 5793 5794 5795 5799 5802 5803 5805 5808 5809 5810 5811 5813 5815 5817 5818 5819 5819 5819 5825 5832 5833 5832 5834 5835 5837 5840 5842 5844 5847 5849 5852 5854 5856 5856
5497 5502 5508 5513 5520 5527 5538 5551 5562 5571 5576 5580 5587 5593 5599 5605 5608 5608 5606 5607 5612 5620 5627 5634 5642 5647 5650 5655 5659 5665 5677 5685 5686 5693 5702 5704 5708 5716 5723 5730 5736 5739 5742 5747 5753 5757 5761 5766 5770 5773 5776 5781 5785 5786 5787 5790 5792 5795 5797 5799 5801 5802 5804 5805 5806 5809 5810 5812 5814 5816 5817 5815 5819 5828 5830 5829 5831 5832 5833 5835 5837 5839 5842 5845 5847 5850 5852 5852
5494 5499 5504 5509 5517 5525 5534 5548 5559 5564 5568 5574 5581 5589 5595 5597 5597 5595 5594 5599 5608 5616 5622 5629 5634 5638 5642 5648 5654 5662 5671 5675 5680 5690 5695 5696 5703 5711 5717 5724 5728 5731 5736 5741 5745 5750 5756 5761 5764 5767 5772 5776 5778 5779 5781 5784 5786 5788 5791 5793 5795 5797 5799 5800 5801 5804 5805 5807 5810 5813 5816 5814 5815 5823 5828 5827 5828 5829 5829 5830 5833 5834 5837 5839 5843 5845 5847 5848
5491 5495 5501 5506 5515 5523 5529 5541 5551 5555 5561 5569 5576 5583 5586 5586 5585 5583 5586 5597 5607 5611 5616 5622 5628 5633 5637 5643 5650 5658 5665 5670 5677 5681 5684 5691 5698 5703 5709 5715 5719 5725 5730 5735 5741 5747 5752 5756 5759 5763 5767 5770 5772 5774 5777 5780 5781 5783 5785 5788 5790 5792 5793 5795 5797 5798 5800 5804 5807 5811 5815 5814 5813 5820 5826 5826 5825 5825 5825 5826 5829 5831 5832 5834 5836 5839 5842 5843
5487 5492 5498 5503 5511 5518 5524 5532 5540 5545 5552 5560 5566 5571 5574 5573 5571 5573 5584 5597 5602 5605 5612 5618 5623 5629 5635 5644 5650 5654 5658 5664 5670 5674 5680 5688 5692 5697 5704 5710 5715 5720 5724 5731 5738 5743 5747 5751 5754 5759 5762 5764 5767 5770 5774 5776 5777 5779 5781 5783 5785 5787 5789 5791 5793 5794 5797 5802 5806 5809 5812 5813 5813 5816 5821 5823 5823 5822 5822 5823 5824 5826 5827 5828 5830 5833 5836 5839
5484 5489 5494 5500 5506 5512 5518 5525 5531 5537 5544 5550 5556 5561 5563 5561 5560 5570 5585 5592 5595 5602 5611 5618 5624 5629 5635 5640 5642 5648 5656 5662 5666 5670 5677 5683 5688 5694 5700 5705 5711 5717 5724 5731 5734 5737 5741 5744 5748 5753 5756 5759 5762 5766 5770 5772 5775 5776 5778 5782 5784 5786 5788 5790 5793 5795 5798 5802 5805 5807 5808 5809 5812 5813 5814 5817 5819 5819 5819 5819 5819 5821 5822 5823 5825 5827 5829 5833
5482 5486 5490 5495 5501 5507 5512 5519 5526 5531 5536 5542 5547 5550 5551 5551 5557 5572 5583 5587 5593 5603 5610 5615 5623 5628 5631 5633 5637 5645 5652 5658 5662 5667 5672 5675 5680 5686 5691 5699 5707 5714 5722 5727 5730 5735 5739 5742 5748 5752 5754 5758 5760 5764 5768 5770 5773 5775 5777 5779 5782 5784 5786 5787 5790 5792 5795 5798 5799 5802 5802 5804 5809 5811 5810 5812 5815 5816 5816 5815 5815 5815 5816 5817 5819 5821 5823 5825
5478 5483 5487 5492 5497 5504 5508 5513 5519 5524 5527 5531 5535 5536 5539 5546 5557 5569 5577 5583 5593 5601 5607 5613 5619 5623 5626 5629 5635 5642 5647 5652 5658 5662 5666 5670 5675 5682 5688 5696 5703 5709 5714 5719 5725 5732 5736 5742 5748 5751 5753 5756 5758 5761 5764 5766 5768 5769 5771 5773 5776 5779 5780 5782 5785 5787 5790 5792 5794 5796 5798 5802 5806 5808 5807 5808 5810 5812 5811 5811 5811 5810 5810 5812 5814 5815 5816 5818
5475 5480 5485 5489 5495 5500 5502 5505 5513 5517 5518 5523 5526 5527 5534 5545 5556 5567 5575 5584 5593 5599 5604 5609 5612 5616 5619 5623 5630 5636 5641 5650 5655 5658 5662 5668 5674 5681 5687 5693 5699 5704 5709 5715 5720 5726 5731 5737 5741 5744 5747 5749 5752 5755 5758 5760 5763 5764 5766 5770 5774 5776 5777 5779 5782 5784 5786 5787 5789 5792 5795 5799 5802 5803 5804 5804 5805 5807 5807 5806 5806 5806 5806 5807 5808 5809 5810 5812
5472 5477 5482 5487 5492 5495 5496 5500 5508 5510 5511 5515 5518 5522 5533 5545 5555 5564 5574 5584 5592 5597 5601 5603 5605 5608 5612 5616 5623 5629 5637 5646 5650 5654 5660 5665 5670 5677 5683 5689 5696 5704 5710 5714 5718 5723 5729 5733 5736 5739 5741 5744 5747 5750 5753 5756 5758 5760 5765 5770 5772 5772 5774 5777 5778 5779 5781 5781 5784 5787 5790 5795 5797 5799 5801 5801 5800 5801 5801 5801 5801 5801 5801 5802 5803 5804 5805 5807
5469 5473 5479 5485 5488 5490 5493 5497 5501 5504 5504 5506 5511 5520 5532 5543 5553 5562 5571 5580 5586 5591 5595 5598 5601 5605 5609 5614 5620 5627 5635 5640 5643 5650 5657 5663 5669 5676 5682 5688 5695 5701 5706 5710 5714 5720 5725 5729 5732 5735 5737 5739 5743 5744 5747 5751 5754 5757 5762 5765 5765 5766 5769 5772 5772 5774 5776 5777 5780 5783 5786 5790 5793 5795 5798 5797 5796 5795 5795 5796 5796 5796 5797 5797 5798 5799 5800 5802
5464 5469 5477 5484 5486 5487 5490 5492 5495 5497 5495 5497 5506 5516 5525 5537 5550 5560 5567 5575 5581 5586 5590 5595 5599 5603 5609 5615 5621 5628 5632 5635 5639 5647 5653 5660 5668 5676 5682 5687 5692 5697 5700 5704 5708 5714 5718 5721 5725 5729 5731 5733 5735 5738 5743 5747 5749 5753 5755 5757 5758 5760 5763 5766 5767 5770 5772 5774 5776 5778 5781 5786 5790 5793 5793 5793 5792 5791 5789 5789 5790 5790 5791 5793 5794 5794 5795 5796
5460 5465 5474 5482 5481 5481 5485 5487 5487 5487 5488 5494 5505 5514 5523 5535 5547 5556 5563 5570 5577 5581 5587 5594 5598 5601 5608 5614 5620 5625 5629 5632 5639 5646 5652 5659 5666 5672 5677 5682 5687 5692 5696 5699 5703 5708 5712 5715 5719 5723 5725 5727 5730 5736 5741 5743 5746 5750 5751 5753 5756 5757 5760 5762 5764 5766 5768 5769 5771 5773 5776 5783 5788 5789 5788 5788 5788 5787 5785 5784 5784 5785 5786 5789 5790 5789 5788 5789
5454 5458 5469 5478 5477 5476 5480 5479 5479 5482 5486 5494 5503 5512 5521 5531 5541 5551 5559 5566 5573 5580 5587 5592 5595 5601 5606 5610 5614 5620 5625 5630 5637 5643 5649 5656 5662 5668 5673 5677 5682 5687 5689 5691 5697 5702 5706 5710 5714 5717 5720 5724 5729 5734 5737 5739 5742 5745 5747 5750 5753 5754 5756 5758 5759 5762 5764 5765 5767 5769 5771 5778 5783 5783 5784 5785 5784 5783 5782 5780 5780 5781 5783 5785 5785 5785 5784 5784
5448 5454 5465 5474 5472 5471 5473 5473 5477 5482 5485 5492 5502 5509 5518 5527 5536 5547 5556 5563 5569 5575 5581 5586 5591 5597 5602 5606 5611 5617 5622 5629 5635 5641 5648 5655 5661 5667 5671 5674 5678 5682 5685 5688 5693 5696 5699 5704 5708 5711 5716 5720 5724 5728 5731 5734 5737 5740 5742 5746 5747 5747 5749 5751 5753 5756 5758 5760 5764 5765 5766 5773 5779 5779 5780 5781 5780 5779 5779 5778 5777 5777 5778 5779 5780 5780 5780 5779
5447 5454 5460 5465 5465 5466 5466 5467 5472 5478 5483 5492 5502 5508 5514 5523 5532 5542 5550 5558 5564 5570 5575 5580 5586 5592 5596 5602 5608 5613 5619 5626 5633 5639 5647 5652 5658 5663 5667 5670 5674 5677 5679 5683 5688 5692 5696 5700 5703 5707 5711 5715 5719 5724 5726 5729 5732 5734 5737 5740 5739 5740 5744 5747 5749 5753 5754 5757 5761 5762 5763 5770 5775 5776 5777 5776 5775 5774 5774 5774 5773 5773 5773 5773 5774 5775 5776 5776
5446 5449 5450 5455 5459 5459 5460 5462 5468 5475 5483 5491 5497 5500 5508 5517 5526 5536 5545 5552 5559 5566 5572 5577 5583 5589 5594 5599 5604 5610 5617 5624 5630 5637 5643 5648 5653 5658 5663 5668 5671 5673 5677 5681 5685 5690 5692 5693 5697 5702 5705 5708 5713 5716 5719 5723 5726 5729 5732 5733 5734 5738 5741 5743 5747 5749 5751 5756 5759 5759 5763 5768 5770 5771 5772 5771 5770 5769 5767 5768 5768 5768 5769 5769 5768 5769 5770 5772
5438 5438 5440 5450 5454 5452 5456 5462 5467 5474 5482 5486 5489 5495 5502 5510 5520 5531 5541 5550 5558 5566 5572 5577 5583 5587 5591 5596 5602 5608 5614 5621 5626 5632 5637 5643 5649 5654 5659 5664 5667 5671 5676 5680 5684 5687 5689 5690 5694 5697 5699 5704 5709 5713 5719 5723 5724 5726 5728 5730 5733 5736 5738 5741 5744 5745 5749 5755 5755 5755 5761 5765 5765 5766 5765 5764 5765 5765 5763 5763 5763 5763 5764 5764 5763 5764 5765 5766
5429 5428 5433 5445 5448 5445 5452 5461 5463 5468 5476 5480 5484 5491 5497 5505 5516 5527 5536 5545 5554 5563 5569 5575 5579 5582 5585 5590 5596 5601 5608 5615 5620 5627 5633 5638 5644 5650 5656 5661 5664 5667 5671 5676 5681 5685 5687 5690 5694 5697 5701 5707 5712 5716 5721 5723 5723 5725 5729 5731 5733 5734 5736 5738 5738 5741 5748 5750 5748 5752 5757 5759 5760 5761 5759 5758 5759 5760 5760 5758 5757 5757 5757 5758 5759 5759 5759 5760
5418 5419 5425 5437 5442 5440 5446 5454 5455 5462 5471 5475 5479 5486 5493 5502 5513 5522 5531 5539 5547 5556 5563 5568 5572 5575 5580 5585 5591 5597 5604 5610 5615 5623 5630 5635 5641 5646 5652 5656 5660 5663 5667 5673 5678 5681 5683 5687 5692 5697 5701 5705 5707 5711 5715 5716 5718 5722 5725 5726 5727 5728 5729 5730 5731 5738 5743 5741 5744 5752 5753 5753 5756 5756 5755 5755 5754 5754 5756 5754 5752 5752 5752 5753 5754 5754 5754 5754
5410 5412 5421 5432 5437 5435 5440 5448 5453 5460 5468 5471 5476 5483 5490 5499 5508 5515 5525 5534 5541 5550 5557 5561 5566 5572 5578 5584 5590 5595 5600 5604 5610 5617 5623 5629 5636 5641 5646 5651 5655 5660 5664 5669 5673 5677 5681 5686 5691 5694 5696 5698 5701 5704 5707 5709 5712 5714 5717 5719 5720 5721 5722 5724 5730 5737 5737 5735 5743 5750 5747 5748 5753 5752 5751 5752 5750 5749 5750 5750 5748 5747 5747 5748 5748 5748 5749 5750
5404 5408 5416 5425 5429 5430 5438 5448 5454 5458 5461 5466 5470 5476 5483 5493 5502 5513 5523 5530 5535 5544 5552 5556 5562 5570 5576 5582 5588 5591 5594 5600 5607 5612 5618 5626 5632 5638 5643 5647 5652 5657 5660 5664 5669 5673 5677 5682 5686 5689 5691 5694 5697 5699 5701 5703 5705 5707 5710 5712 5713 5715 5718 5723 5729 5733 5730 5732 5740 5743 5741 5745 5749 5748 5748 5749 5746 5744 5744 5744 5744 5742 5741 5742 5742 5743 5746 5748
5400 5404 5413 5421 5424 5428 5436 5444 5448 5451 5455 5460 5463 5468 5477 5489 5499 5509 5518 5524 5530 5539 5548 5555 5563 5570 5576 5580 5585 5588 5594 5602 5610 5615 5620 5624 5628 5634 5639 5644 5649 5653 5655 5658 5663 5667 5671 5675 5678 5681 5684 5687 5690 5692 5694 5697 5699 5701 5703 5705 5708 5711 5715 5720 5725 5724 5722 5728 5736 5736 5736 5742 5745 5744 5744 5744 5741 5739 5738 5738 5738 5736 5735 5736 5738 5740 5743 5744
5398 5404 5411 5414 5417 5424 5431 5435 5440 5445 5446 5448 5453 5461 5472 5483 5495 5506 5514 5521 5531 5542 5552 5560 5566 5571 5576 5579 5582 5589 5597 5605 5613 5619 5623 5625 5628 5632 5635 5638 5642 5646 5649 5653 5656 5660 5664 5667 5671 5675 5676 5679 5683 5685 5687 5691 5693 5693 5695 5701 5705 5708 5711 5715 5719 5719 5721 5727 5731 5729 5731 5739 5742 5740 5739 5737 5735 5734 5734 5733 5732 5730 5730 5731 5734 5737 5738 5739
5394 5397 5402 5404 5408 5416 5421 5426 5431 5434 5434 5441 5451 5461 5470 5482 5494 5504 5511 5518 5528 5541 5555 5563 5567 5569 5573 5576 5583 5592 5599 5603 5608 5613 5617 5621 5626 5629 5633 5636 5638 5641 5646 5650 5653 5656 5659 5662 5666 5670 5672 5675 5678 5680 5683 5686 5684 5685 5693 5702 5706 5706 5708 5712 5714 5717 5720 5723 5723 5723 5728 5733 5734 5733 5732 5731 5729 5729 5730 5728 5726 5726 5725 5727 5731 5733 5734 5734